RYR34GF EGCC-LGKR

Flight info

Callsign RYR34GF
Flight time N/A
Altitude 35000
Route DESIG L603 DOLAS DCT NAVPI DCT NOLRU DCT DOJOH DCT DODEN DCT NEGIX DCT DINKU M867 XERUM DCT BAVAX DCT RADIZ DCT DEGUM DCT DABAR DCT PALEZ DCT DIGOT DCT NUPSO DCT OKLAX DCT SPL DCT RILIM DCT AIOSA DCT ENOXA DCT KAPPO DCT TIGRA
Aircraft B738/M-SDE2E3FGHIRWXY/LB1

Departure

Time 2026-05-04 09:04
Airport Manchester Airport (EGCC)

Arrival

Time N/A
Airport Corfu Ioannis Kapodistrias International Airport (LGKR)
Time Latitude Longitude Altitude Speed Heading
2026-05-04 08:35 53.35974 -2.26981 254 ft 0 kts 291°
2026-05-04 08:37 53.35974 -2.26978 254 ft 0 kts 291°
2026-05-04 08:48 53.35967 -2.26947 254 ft 4 kts 291°
2026-05-04 08:49 53.35959 -2.26913 254 ft 4 kts 283°
2026-05-04 08:50 53.36034 -2.26733 254 ft 4 kts 231°
2026-05-04 08:50 53.36049 -2.26701 254 ft 1 kts 230°
2026-05-04 08:51 53.36050 -2.26700 254 ft 0 kts 230°
2026-05-04 08:57 53.36019 -2.26763 257 ft 9 kts 231°
2026-05-04 09:01 53.35213 -2.28338 232 ft 18 kts 230°
2026-05-04 09:01 53.35120 -2.28532 226 ft 23 kts 231°
2026-05-04 09:01 53.35030 -2.28712 227 ft 19 kts 227°
2026-05-04 09:01 53.34951 -2.28851 225 ft 15 kts 226°
2026-05-04 09:02 53.34900 -2.28940 222 ft 10 kts 225°
2026-05-04 09:02 53.34843 -2.29031 218 ft 13 kts 220°
2026-05-04 09:02 53.34797 -2.29066 221 ft 0 kts 190°
2026-05-04 09:02 53.34794 -2.29067 220 ft 2 kts 189°
2026-05-04 09:03 53.34748 -2.29065 217 ft 11 kts 168°
2026-05-04 09:03 53.34674 -2.28972 218 ft 15 kts 96°
2026-05-04 09:03 53.34729 -2.28831 221 ft 17 kts 51°
2026-05-04 09:03 53.34937 -2.28401 232 ft 81 kts 51°
2026-05-04 09:04 53.35427 -2.27388 244 ft 140 kts 51°
2026-05-04 09:04 53.36117 -2.25934 495 ft 169 kts 51°
2026-05-04 09:04 53.36856 -2.24421 1314 ft 169 kts 51°
2026-05-04 09:04 53.37622 -2.22875 1958 ft 181 kts 51°
2026-05-04 09:05 53.38452 -2.21154 2520 ft 196 kts 52°
2026-05-04 09:05 53.39310 -2.19314 2989 ft 210 kts 52°
2026-05-04 09:05 53.40251 -2.17284 3261 ft 229 kts 51°
2026-05-04 09:05 53.41240 -2.15157 3796 ft 233 kts 51°
2026-05-04 09:06 53.42250 -2.12994 4384 ft 238 kts 51°
2026-05-04 09:07 53.50008 -1.95579 9030 ft 289 kts 78°
2026-05-04 09:08 53.49948 -1.92201 9767 ft 293 kts 103°
2026-05-04 09:08 53.49491 -1.88857 10461 ft 298 kts 103°
2026-05-04 09:08 53.49000 -1.85340 10668 ft 322 kts 103°
2026-05-04 09:08 53.48484 -1.81545 10884 ft 343 kts 103°
2026-05-04 09:09 53.47964 -1.77580 11414 ft 352 kts 102°
2026-05-04 09:09 53.47455 -1.73589 12108 ft 355 kts 102°
2026-05-04 09:09 53.46948 -1.69525 12850 ft 358 kts 102°
2026-05-04 09:09 53.46439 -1.65404 13513 ft 363 kts 102°
2026-05-04 09:10 53.45925 -1.61229 14154 ft 367 kts 102°
2026-05-04 09:10 53.45409 -1.57029 14827 ft 368 kts 102°
2026-05-04 09:10 53.44887 -1.52799 15471 ft 372 kts 102°
2026-05-04 09:10 53.44359 -1.48527 16051 ft 377 kts 102°
2026-05-04 09:11 53.43824 -1.44212 16702 ft 379 kts 102°
2026-05-04 09:11 53.43286 -1.39880 17386 ft 381 kts 102°
2026-05-04 09:11 53.42743 -1.35521 17984 ft 384 kts 102°
2026-05-04 09:11 53.42190 -1.31108 18556 ft 388 kts 102°
2026-05-04 09:12 53.41606 -1.26685 19135 ft 389 kts 105°
2026-05-04 09:12 53.40878 -1.22319 19689 ft 391 kts 107°
2026-05-04 09:14 53.35088 -0.91210 23230 ft 410 kts 107°
2026-05-04 09:14 53.34243 -0.86652 23736 ft 411 kts 107°
2026-05-04 09:14 53.33390 -0.82066 24177 ft 413 kts 107°
2026-05-04 09:14 53.32536 -0.77477 24606 ft 414 kts 107°
2026-05-04 09:15 53.31674 -0.72865 25027 ft 416 kts 107°
2026-05-04 09:15 53.30822 -0.68318 25474 ft 416 kts 106°
2026-05-04 09:15 53.29951 -0.63689 25839 ft 418 kts 106°
2026-05-04 09:15 53.29072 -0.59034 26175 ft 422 kts 106°
2026-05-04 09:17 53.21838 -0.20946 28852 ft 440 kts 107°
2026-05-04 09:18 53.20900 -0.16098 29209 ft 441 kts 107°
2026-05-04 09:18 53.19956 -0.11219 29494 ft 443 kts 107°
2026-05-04 09:18 53.19004 -0.06309 29753 ft 446 kts 107°
2026-05-04 09:18 53.18048 -0.01391 30143 ft 445 kts 107°
2026-05-04 09:19 53.17096 0.03511 30440 ft 446 kts 107°
2026-05-04 09:19 53.16136 0.08449 30595 ft 450 kts 108°
2026-05-04 09:19 53.15171 0.13408 30881 ft 450 kts 108°
2026-05-04 09:19 53.14206 0.18357 31279 ft 448 kts 108°
2026-05-04 09:20 53.13245 0.23269 31641 ft 446 kts 108°
2026-05-04 09:20 53.12282 0.28179 31925 ft 446 kts 108°
2026-05-04 09:20 53.11316 0.33093 32185 ft 447 kts 108°
2026-05-04 09:20 53.10346 0.38014 32478 ft 447 kts 108°
2026-05-04 09:21 53.09377 0.42920 32813 ft 446 kts 108°
2026-05-04 09:21 53.08409 0.47808 33114 ft 445 kts 108°
2026-05-04 09:21 53.07438 0.52697 33351 ft 446 kts 109°
2026-05-04 09:21 53.06457 0.57624 33406 ft 451 kts 109°
2026-05-04 09:22 53.05466 0.62588 33611 ft 453 kts 109°
2026-05-04 09:22 53.04473 0.67549 33952 ft 451 kts 109°
2026-05-04 09:22 53.03484 0.72480 34216 ft 450 kts 109°
2026-05-04 09:22 53.02493 0.77411 34479 ft 449 kts 109°
2026-05-04 09:23 53.01516 0.82257 34664 ft 449 kts 109°
2026-05-04 09:23 53.00504 0.87261 34772 ft 452 kts 109°
2026-05-04 09:23 52.99518 0.92137 34997 ft 450 kts 110°
2026-05-04 09:23 52.98522 0.97045 35026 ft 451 kts 110°
2026-05-04 09:25 52.89733 1.36089 35036 ft 454 kts 112°
2026-05-04 09:26 52.87490 1.45873 35036 ft 454 kts 112°
2026-05-04 09:26 52.85240 1.55651 35022 ft 454 kts 112°
2026-05-04 09:27 52.82986 1.65400 35028 ft 454 kts 113°
2026-05-04 09:27 52.80724 1.75133 35027 ft 454 kts 113°
2026-05-04 09:28 52.78452 1.84865 35025 ft 454 kts 113°
2026-05-04 09:28 52.76191 1.94512 35024 ft 454 kts 113°
2026-05-04 09:29 52.73907 2.04206 35006 ft 454 kts 114°
2026-05-04 09:29 52.71612 2.13906 35021 ft 454 kts 114°
2026-05-04 09:30 52.69309 2.23597 35023 ft 454 kts 114°
2026-05-04 09:30 52.66996 2.33284 35022 ft 455 kts 114°
2026-05-04 09:31 52.64672 2.42979 35021 ft 456 kts 114°
2026-05-04 09:31 52.62335 2.52684 35003 ft 456 kts 114°
2026-05-04 09:32 52.59987 2.62390 35019 ft 456 kts 114°
2026-05-04 09:34 52.49953 3.00708 34994 ft 456 kts 119°
2026-05-04 09:34 52.47174 3.10054 34993 ft 456 kts 119°
2026-05-04 09:35 52.44431 3.19355 35008 ft 456 kts 119°
2026-05-04 09:35 52.41675 3.28726 35009 ft 457 kts 119°
2026-05-04 09:37 52.30555 3.66214 35005 ft 459 kts 120°
2026-05-04 09:38 52.27742 3.75602 35009 ft 460 kts 120°
2026-05-04 09:38 52.24920 3.84985 35005 ft 461 kts 120°
2026-05-04 09:39 52.22086 3.94369 35007 ft 461 kts 120°
2026-05-04 09:39 52.19264 4.03682 34993 ft 461 kts 121°
2026-05-04 09:40 52.16420 4.13029 34997 ft 460 kts 121°
2026-05-04 09:40 52.13572 4.22351 34996 ft 459 kts 122°
2026-05-04 09:42 52.02157 4.59360 34994 ft 456 kts 122°
2026-05-04 09:43 51.99296 4.68549 34993 ft 456 kts 122°
2026-05-04 09:43 51.96442 4.77681 34987 ft 455 kts 122°
2026-05-04 09:44 51.94048 4.85314 34969 ft 455 kts 123°
2026-05-04 09:46 51.82546 5.21655 34992 ft 455 kts 123°
2026-05-04 09:46 51.79626 5.30799 34997 ft 455 kts 123°
2026-05-04 09:47 51.76734 5.39817 34980 ft 455 kts 123°
2026-05-04 09:49 51.64988 5.76122 34989 ft 457 kts 123°
2026-05-04 09:51 51.54584 6.07845 34989 ft 459 kts 123°
2026-05-04 09:51 51.51613 6.16837 34994 ft 459 kts 123°
2026-05-04 09:52 51.48451 6.25695 34975 ft 455 kts 129°
2026-05-04 09:52 51.44892 6.34041 34984 ft 452 kts 130°
2026-05-04 09:53 51.41297 6.42301 34991 ft 452 kts 130°
2026-05-04 09:53 51.37736 6.50583 34983 ft 451 kts 130°
2026-05-04 09:54 51.34198 6.58865 34987 ft 450 kts 130°
2026-05-04 09:54 51.30671 6.67116 34995 ft 450 kts 130°
2026-05-04 09:55 51.27135 6.75358 34988 ft 449 kts 130°
2026-05-04 09:55 51.23602 6.83565 34992 ft 448 kts 130°
2026-05-04 09:56 51.20068 6.91747 34993 ft 448 kts 130°
2026-05-04 09:56 51.16527 6.99918 34993 ft 448 kts 130°
2026-05-04 09:57 51.12981 7.08077 34993 ft 448 kts 130°
2026-05-04 09:57 51.09425 7.16232 34981 ft 448 kts 130°
2026-05-04 09:58 51.05868 7.24365 34981 ft 448 kts 130°
2026-05-04 09:58 51.02301 7.32495 34998 ft 449 kts 130°
2026-05-04 10:00 50.87936 7.64992 34995 ft 450 kts 130°
2026-05-04 10:02 50.73276 7.90005 35021 ft 444 kts 143°
2026-05-04 10:04 50.57808 8.13648 35008 ft 450 kts 134°
2026-05-04 10:04 50.53948 8.21429 35006 ft 451 kts 133°
2026-05-04 10:05 50.50109 8.29138 35001 ft 450 kts 134°
2026-05-04 10:05 50.46204 8.36818 34985 ft 450 kts 134°
2026-05-04 10:06 50.42289 8.44458 35004 ft 449 kts 134°
2026-05-04 10:06 50.38376 8.52077 35008 ft 449 kts 134°
2026-05-04 10:08 50.23655 8.76869 35018 ft 444 kts 139°
2026-05-04 10:08 50.19425 8.83889 35023 ft 444 kts 138°
2026-05-04 10:09 50.15198 8.90902 35017 ft 444 kts 139°
2026-05-04 10:09 50.10972 8.97896 35021 ft 443 kts 139°
2026-05-04 10:10 50.06745 9.04873 35011 ft 443 kts 139°
2026-05-04 10:10 50.02515 9.11833 35024 ft 442 kts 139°
2026-05-04 10:11 49.98284 9.18774 35016 ft 442 kts 139°
2026-05-04 10:11 49.94051 9.25701 35015 ft 442 kts 139°
2026-05-04 10:12 49.89815 9.32614 35032 ft 442 kts 139°
2026-05-04 10:12 49.85573 9.39517 35023 ft 442 kts 139°
2026-05-04 10:13 49.81333 9.46398 35020 ft 442 kts 139°
2026-05-04 10:13 49.77086 9.53272 35016 ft 441 kts 139°
2026-05-04 10:14 49.72838 9.60129 35020 ft 441 kts 139°
2026-05-04 10:16 49.57833 9.84201 35696 ft 448 kts 139°
2026-05-04 10:16 49.55677 9.87644 35973 ft 446 kts 139°
2026-05-04 10:16 49.53518 9.91086 36149 ft 447 kts 139°
2026-05-04 10:16 49.51356 9.94527 36336 ft 448 kts 139°
2026-05-04 10:17 49.49226 9.97911 36561 ft 447 kts 139°
2026-05-04 10:17 49.47065 10.01342 36820 ft 446 kts 139°
2026-05-04 10:19 49.31970 10.25178 37045 ft 442 kts 139°
2026-05-04 10:19 49.29826 10.28546 37035 ft 441 kts 139°
2026-05-04 10:19 49.25552 10.35244 37043 ft 439 kts 139°
2026-05-04 10:20 49.20913 10.40960 37059 ft 429 kts 154°
2026-05-04 10:20 49.15722 10.45591 37068 ft 435 kts 154°
2026-05-04 10:21 49.10458 10.50290 37073 ft 441 kts 154°
2026-05-04 10:21 49.05165 10.55077 37072 ft 444 kts 153°
2026-05-04 10:22 48.97215 10.62285 37048 ft 438 kts 153°
2026-05-04 10:23 48.92002 10.66995 37055 ft 434 kts 153°
2026-05-04 10:25 48.73197 10.89951 37053 ft 444 kts 135°
2026-05-04 10:25 48.69116 10.96890 37038 ft 444 kts 136°
2026-05-04 10:26 48.64970 11.03844 37050 ft 445 kts 136°
2026-05-04 10:26 48.60800 11.10793 37052 ft 447 kts 136°
2026-05-04 10:27 48.56613 11.17749 37045 ft 448 kts 136°
2026-05-04 10:27 48.52412 11.24712 37037 ft 449 kts 136°
2026-05-04 10:28 48.48198 11.31680 37014 ft 450 kts 136°